Location: Eexterzandvoort
(53.0303°N, 6.7884°E)
Time: 20:14:21
(UTC+00:00)

Cosmos 1726 Rocket - Pass Details

Date: 19 May 2025
Orbit: 554 x 664 km, 82.5° (Epoch: 20 June)

Event Time Altitude Azimuth Distance (km) Brightness Sun altitude
Rises 20:19:49 0° 199° (SSW) 2,959 6.8 -6.3°
Reaches altitude 10° 20:22:08 10° 203° (SSW) 2,040 6.0 -6.6°
Maximum altitude 20:26:37 60° 284° (WNW) 727 4.3 -7.0°
Drops below altitude 10° 20:30:59 10° 5° (N) 1,991 6.8 -7.5°
Sets 20:33:13 0° 9° (N) 2,882 7.6 -7.7°
